STARLINK-30863, 59027

Orbit data source: Space-Track

STARLINK-30863, 59027 is a payload satellite owned by SpaceX/Seattle (US) in LEO that was launched on Sun, 25 Feb 2024 UTC via an FALCON 9 launch vehicle from the Air Force Eastern Test Range (AFETR). Payload-class satellites include a variety of spacecraft equipped with specific instruments for various scientific and technological missions. These include communications satellites like Starlink; space stations such as the ISS; scientific satellites like the Hubble; Earth observation satellites from companies like Planet Labs, Umbra, and HawkEye 360; GPS; miniature CubeSats for education and research; and military/defense satellites.

Loading next visibility...
Identifier
59027, 2024-038E
Orbit
LEO
Country
Flag of USUS
Related business
Manufacturer
SpaceX/Seattle
Mission
Operational Commercial Communications
Bus & Motor
STARLINK V2M, Unknown motor
Mass
730 kg wet, ~700 kg dry
Launch date (UTC)
2024-02-25 (2 years ago)
Launch vehicle
FALCON 9
Launch site
Air Force Eastern Test Range (AFETR)
Object type
Payload
Rocket body
Debris
Shape & HBR
Box + 2 Pan, 17.7 m
Radar Cross Section
33.884 m², Large (>1 m²)

Expand to show TLE details & history
Last TLE update: 11 hours ago

TLE from 11 hours ago
0 STARLINK-30863
1 59027U 24038E   25350.71934817  .00002883  00000-0  11429-3 0  9996
2 59027  43.0053 136.0335 0003066 299.0129  61.0415 15.27569178101952
Epoch: 2025-12-16T17:15Z
TLE epoch observation values (Epoch: 2025-12-16T17:15:51.681Z)
Latitude
-0.00006°
Longitude
151.46858°
Altitude
481.84 km
Speed
7.627 km/s
True Right ascension
09h 04m 08s
True Declination
0° 00' 00"
Sunlit
Object was in full shadow at epoch
Visualization orbit readout
Latitude
Unknown
Longitude
Unknown
Altitude
Unknown
Speed
Unknown
Apparent Right ascension
Unknown
Apparent Declination
Unknown
Sunlit
N/A
Visualization observer readout
Local Sidereal Time
02:44:05
Azimuth
Unknown
Elevation
Unknown
Doppler factor
Unknown
Orbital elements
Apogee altitude
487.13 km
Perigee altitude
482.922 km
Semi-major axis
6,863.163 km
Eccentricity
0.00031
Inclination
43.0053°
RAAN
136.0335°
Arg. of periapsis
299.0129°
True anomaly
61.07225°
Mean anomaly
61.0415°
Eccentric anomaly
61.05687°
Mean motion
3.8173 °/min
Orbital period
94.31 mins
BSTAR
0.00011429
Loading maneuver chart data...
Computing Atmospheric mass density...
Loading historical data...
Loading historical data...
Loading historical data...
Loading historical data...
Loading historical data...
Loading historical data...
Loading historical data...

Documentation

Showing up to 5 results
|